sat.trackr.live / text

‹ back to catalog

STARLINK-36609

NORAD 67582 · 2026-016X

PAYLOAD ACTIVE UNKNOWN

§ Identity

Operator
Country
US
Launch date
2026-01-25
Launch site
AFWTR
Launch vehicle
Mass (kg)
RCS (m²)

Purposes: comms

External: N2YO · Heavens-Above · Gunter

§ Orbital elements

Epoch: 2026-05-25T03:50:15.353088Z

Period
93.91 min
Inclination
97.2847°
Eccentricity
0.0000681
Mean motion
15.33450493 rev/d
Perigee alt
465.1 km
Apogee alt
466.0 km
Semi-major
6,843.7 km
B*
6.0414e-4
RAAN
205.4943°
Arg perigee
106.9854°
Mean anomaly
253.1464°
Rev number
1,858

§ Raw data

STARLINK-366091 67582U 26016X   26145.15989992  .00019482  00000+0  60414-3 0  99942 67582  97.2847 205.4943 0000681 106.9854 253.1464 15.33450493 18586

JSON: /api/v1/satellites/67582 · /tle

For live sub-satellite position, see the globe view (requires WebGL).

§ Visibility from observer

Set your observer location to see the next 7 days of passes ≥ 10°. The values pass through the URL so the page stays shareable.

No JS? Fill the form by hand. The geolocation button needs JavaScript.